Weather History for Surat Thani, Thailand

Change the Weather History Date:

Friday, November 9, 2012

  Actual Average Record
Temperature  
Mean Temperature 82 °F -  
Max Temperature 91 °F 85 °F - ()
Min Temperature 74 °F 72 °F - ()
Cooling Degree Days 18    
Growing Degree Days 32 (Base 50)    
Moisture  
Dew Point 77 °F    
Average Humidity 88    
Maximum Humidity 100    
Minimum Humidity 61    
Precipitation  
Precipitation 0.00 in 0.36 in - ()
Sea Level Pressure  
Sea Level Pressure 29.80 in    
Wind  
Wind Speed 2 mph ()    
Max Wind Speed 12 mph    
Max Gust Speed -    
Visibility 4.9 miles    
Events Rain    
T = Trace of Precipitation, MM = Missing Value Source: Averaged Metar Reports

Daily Weather History Graph

Daily Weather History Graph

Search for Another Location

Airport:

Trip Planner

Search our weather history database for the weather conditions in past years. The results will help you decide how hot, cold, wet, or windy it might be!

Date:

Astronomy

Nov. 09, 2012 Rise Set
Actual Time 6:14 AM ICT 5:59 PM ICT
Civil Twilight 5:53 AM ICT 6:21 PM ICT
Nautical Twilight 5:27 AM ICT 6:46 PM ICT
Astronomical Twilight 5:02 AM ICT 7:11 PM ICT
Moon 1:38 AM ICT (11/9) 2:04 PM ICT (11/9)
Length of Visible Light 12h 28m
Length of Day
11h 44m
Waning Crescent, 28% of the Moon is Illuminated
Nov 9
Waning Crescent
Nov 14
New
Nov 20
First Quarter
Nov 28
Full
Dec 6
Last Quarter

Hourly Weather History & Observations

Time (ICT) Temp. Heat Index Dew Point Humidity Pressure Visibility Wind Dir Wind Speed Gust Speed Precip Events Conditions
1:00 AM 76 °F - 75 °F 94% 29.79 in 4 mi Calm Calm - -   Mist
6:00 AM 75.2 °F - 75.2 °F 100% 29.80 in 3.1 mi Calm Calm - N/A   Mostly Cloudy
7:00 AM 74 °F - 73 °F 96% 29.82 in 5 mi Calm Calm - -   Mist
7:00 AM 75.2 °F - 75.2 °F 100% 29.83 in 3.7 mi Calm Calm - N/A   Scattered Clouds
8:00 AM 80.6 °F 87.1 °F 77.0 °F 89% 29.86 in 6.2 mi Calm Calm - N/A   Scattered Clouds
9:00 AM 84.2 °F 94.1 °F 77.0 °F 79% 29.86 in 6.2 mi NE 11.5 mph - N/A   Scattered Clouds
10:00 AM 86.0 °F 99.3 °F 78.8 °F 79% 29.86 in 6.2 mi NE 8.1 mph - N/A   Mostly Cloudy
11:00 AM 87.8 °F 97.6 °F 75.2 °F 66% 29.86 in 6.2 mi NE 6.9 mph - N/A   Mostly Cloudy
12:00 PM 87.8 °F 99.7 °F 77.0 °F 70% 29.83 in 6.2 mi ESE 5.8 mph - N/A   Mostly Cloudy
1:00 PM 89 °F - 77 °F 61% 29.81 in 5 mi East 2.3 mph - -   Partly Cloudy
1:00 PM 82.4 °F 92.4 °F 78.8 °F 89% 29.80 in 5.0 mi SE 6.9 mph - N/A   Mostly Cloudy
2:00 PM 82.4 °F 90.9 °F 77.0 °F 84% 29.77 in 5.0 mi SSW 5.8 mph - N/A   Mostly Cloudy
3:00 PM 80.6 °F 87.1 °F 77.0 °F 89% 29.74 in 5.0 mi South 3.5 mph - N/A   Mostly Cloudy
4:00 PM 78.8 °F - 77.0 °F 94% 29.74 in 5.0 mi NW 2.3 mph - N/A   Mostly Cloudy
5:00 PM 82.4 °F 94.0 °F 80.6 °F 94% 29.74 in 5.0 mi WNW 2.3 mph - N/A   Mostly Cloudy
7:00 PM 80 °F - 78 °F 93% 29.78 in 4 mi Calm Calm - - Rain Light Rain
7:00 PM 78.8 °F - 78.8 °F 100% 29.77 in 4.3 mi Calm Calm - N/A   Mostly Cloudy
8:00 PM 78.8 °F - 78.8 °F 100% 29.80 in 4.3 mi North 3.5 mph - N/A   Scattered Clouds
9:00 PM 78.8 °F - 78.8 °F 100% 29.83 in 4.3 mi NNW 4.6 mph - N/A   Scattered Clouds